Location: Melbourne
(37.8170°S, 144.9670°E)
Time: 01:05:51
(UTC+11:00)

Explorer 11/Cluster Stage 4 - Visible Passes

Search period start: 23 November 2014 00:00
Search period end: 03 December 2014 00:00
Orbit: 468 x 1279 km, 28.8° (Epoch: 20 November)

Date Brightness Start Highest point End Pass type
(mag) Time Alt. Az. Time Alt. Az. Time Alt. Az.
24 Nov 7.7 20:52:20 10° N 20:53:23 11° NNE 20:54:25 10° NNE visible
25 Nov 8.2 22:31:07 10° NW 22:31:10 10° NW 22:31:10 10° NW visible
26 Nov 7.8 22:23:43 10° NW 22:24:35 14° NW 22:24:35 14° NW visible
27 Nov 7.5 22:16:19 10° NW 22:17:53 17° NNW 22:17:53 17° NNW visible
28 Nov 7.3 22:08:55 10° NW 22:11:07 19° NNW 22:11:07 19° NNW visible
29 Nov 7.3 22:01:32 10° WNW 22:04:16 19° NNW 22:04:16 19° NNW visible
30 Nov 7.3 21:54:08 10° WNW 21:56:59 18° NNW 21:57:23 18° N visible
01 Dec 7.5 21:46:45 10° WNW 21:49:32 17° NNW 21:50:28 16° N visible
02 Dec 7.7 21:39:23 10° WNW 21:42:04 16° NNW 21:43:31 14° N visible
